Starlink 5708

operational
NORAD ID: 55470 Int'l Des: 2023-015 Owner: SPXS Country: US Constellation: starlink
LEOCIRCULAR

About Starlink 5708

Description loading...

Live Position

Loading 3D Globe...

Upcoming Passes

Altitude History

Altitude vs Time

uPlot chart will show altitude changes over time

Two-Line Element Set

1 55470U 23015X 26035.56392071 .00000113 00000-0 23428-4 0 9999
2 55470 43.0018 145.7588 0001119 261.9735 98.0981 15.02535627165779
Epoch: Feb 4, 2026 • Age: 23 hours

Current Status

Altitude 560.0 km
Velocity 7.59 km/s
Sub-Earth Point 28.63°N, 140.41°W
Launch Date Feb 2, 2023
Age 3 years
Type internet

Technical Details

Classification Payload
Mass 305.00 kg
Dry Mass 290.00 kg
Total Mass 305.00 kg
Length 0.20 m
Diameter 2.80 m
Span 9.00 m
Shape Box + pan
Manufacturer SPXS
Bus Type Starlink
Phase Status In Orbit
Owner/State SPXS/US

Large Constellations

Loading constellations...